Location: *
(46.3500°N, 10.9000°E)
Time: 10:55:59
(UTC+00:00)

Vanguard 2 - Pass Details

Date: 03 December 2021
Orbit: 553 x 2936 km, 32.9° (Epoch: 19 January)

Event Time Altitude Azimuth Distance (km) Brightness Sun altitude
Rises 15:50:43 0° 254° (WSW) 3,545 13.1 -3.8°
Reaches altitude 10° 15:53:15 10° 242° (WSW) 2,856 12.5 -4.2°
Maximum altitude 15:59:12 29° 185° (S) 2,349 10.4 -5.1°
Drops below altitude 10° 16:08:00 10° 132° (SE) 4,342 11.1 -6.4°
Sets 16:12:57 0° 123° (ESE) 5,766 11.7 -7.2°
